www.pogodaiklimat.ru

Погода и климат >> Архив погоды >> Франция >> Сен-Жирон


ПОГОДА в Сен-Жироне

  • Прогноз погоды в Сен-Жироне
  • Монитор погоды в Сен-Жироне

АРХИВ ПОГОДЫ в Сен-Жироне

Время (UTC), дата Ветер
(напр.,м/с)
 
Видим.   Явления Облачность Т
(С)
Тd
(С)
f
(%)
Тe
(С)
Тes
(С)
Комфортность P
(гПа)
Po
(гПа)
Тmin
(С)
Tmax
(С)
R
(мм)
R24
(мм)
S
(см)
01 9.09 ЮЗ 1 20 км 10/10 1470 м
[]
+12.0 +9.6 85 +13 +13 1020.3 971.3
02 9.09 Ю 1 20 км н/о +10.2 +7.8 85 +11 +11 1020.3 971.0
03 9.09 Ю 1
{2}
20 км н/о +8.6 +6.9 89 +8 +8 1020.2 970.6 0
04 9.09 штиль 0 17 км н/о +7.7 +6.8 94 +7 +7 1019.6 969.9
05 9.09 Ю 1 15 км н/о +7.0 +6.3 95 +7 +7 1019.7 969.8
06 9.09 Ю 1
{2}
20 км н/о +7.8 +7.2 96 +7 +7 1019.3 969.6 +6.6 +17.9 0
07 9.09 З 1 20 км н/о +10.5 +8.8 89 +11 +11 1019.1 969.9
08 9.09 СЗ 1 20 км н/о +14.1 +9.5 74 +15 +15 1018.7 970.1
09 9.09 С 1
{2}
20 км н/о +17.1 +9.5 61 +19 +19 1016.9 968.9 0
10 9.09 С 1 20 км н/о +19.1 +9.0 52 +21 +21 комфорт 1016.0 968.3
11 9.09 С 1 20 км н/о +20.1 +8.7 48 +22 +22 комфорт 1015.6 968.1
12 9.09 С 1
{5}
20 км н/о +21.4 +8.6 44 +23 +23 комфорт 1014.7 967.5 0
13 9.09 СЗ 2 20 км н/о +21.4 +9.6 47 +23 +23 комфорт 1014.3 967.1
14 9.09 З 1 20 км н/о +21.5 +9.1 45 +23 +23 комфорт 1013.8 966.6
15 9.09 СЗ 3
{5}
20 км н/о +20.4 +9.3 49 +22 +22 комфорт 1013.5 966.2 0
16 9.09 СЗ 1 20 км н/о +20.4 +9.3 49 +23 +23 комфорт 1013.0 965.7
17 9.09 З 1 20 км 8/8
[]
+19.3 +10.0 55 +22 +22 комфорт 1013.4 965.9
18 9.09 Ю 1
{2}
20 км 10/0
[]
+17.2 +11.0 67 +18 +18 1013.5 965.7 +7.9 +21.9 0
19 9.09 З 1 20 км 10/6 1470 м
[]
+16.0 +11.6 75 +17 +17 1013.9 965.9
20 9.09 СЗ 1 20 км 10/10 1500 м
[]
+16.3 +10.4 68 +17 +17 1014.9 966.9
21 9.09 СЗ 3
{5}
20 км 10/10 1500 м
[]
+16.6 +10.2 66 +16 +16 1014.9 966.9 0
22 9.09 СЗ 2 20 км 9/1 1320 м
[]
+15.3 +10.5 73 +15 +15 1014.8 966.6
23 9.09 С 1 20 км 10/9 930 м
[]
+14.8 +10.6 76 +16 +16 1014.3 966.1 0.0
00 10.09 Ю 1
{2}
20 км 10/10 1000 м
[]
+14.2 +11.2 82 +15 +15 1013.7 965.4 0.0 0
01 10.09 Ю 1 20 км дождь 10/5 1300 м
[]
+13.4 +11.8 90 +13 +13 1013.4 965.0 0.2
02 10.09 СЗ 2 3100 м сильн. дождь 10/9 300 м
[]
+12.9 +12.0 94 +12 +12 1014.5 966.0 4
03 10.09 З 3
{9}
19 км слаб. дождь 10/0 2000 м
[]
+12.0 +8.3 78 +11 +11 1015.0 966.2 6 0
04 10.09 С 1 5000 м дождь 10/9 1020 м
[]
+11.3 +9.4 88 +12 +12 1015.0 966.1 2
05 10.09 З 1 6000 м дождь 10/6 870 м
[]
+10.8 +9.1 89 +10 +10 1015.7 966.7 3
06 10.09 В 1
{2}
19 км слаб. дождь 10/10 1000 м
[]
+10.4 +9.3 93 +10 +10 1016.0 966.9 +10.3 +17.2 6 0
07 10.09 штиль 0 15 км дождь 10/9 1320 м
[]
+10.5 +8.4 87 +10 +10 1015.9 966.8 0.4
08 10.09 ЮВ 2 20 км слаб. дождь 10/9 1170 м
[]
+10.4 +9.2 92 +9 +9 1016.4 967.3 0.6
09 10.09 Ю 2
{4}
20 км слаб. дождь 10/10 1000 м
[]
+11.3 +8.9 85 +10 +10 1016.7 967.7 1 0
10 10.09 Ю 1 20 км 10/10 1500 м
[]
+13.3 +8.6 73 +14 +14 1015.9 967.3 0.2
11 10.09 С 1 20 км 9/6 700 м
[]
+15.1 +8.6 65 +16 +20 1015.5 967.2
12 10.09 штиль 0
{3}
20 км 9/0 2000 м
[]
+15.2 +8.0 62 +15 +25 1015.6 967.3 0.2 0
13 10.09 З 1 20 км 9/9
[]
+15.6 +8.1 61 +17 +18 1015.3 967.1
14 10.09 СВ 1 20 км 10/3 900 м
[]
+15.8 +8.5 62 +17 +22 1015.2 967.0
15 10.09 СЗ 2
{3}
20 км слаб. дождь 10/10 600 м
[]
+15.1 +8.6 65 +15 +15 1016.1 967.8 0.0 0
16 10.09 С 1 17 км слаб. дождь 10/1 750 м
[]
+12.8 +9.8 82 +14 +16 1017.6 968.9 0.6
17 10.09 Ю 1 16 км слаб. дождь 10/6 1260 м
[]
+12.2 +10.1 87 +12 +12 1018.7 969.8 1
18 10.09 Ю 2
{3}
17 км слаб. дождь 10/0 2000 м
[]
+11.9 +10.3 90 +11 +11 1019.5 970.5 +10.1 +16.1 2 0
19 10.09 Ю 1 20 км слаб. морось 10/10 1140 м
[]
+11.4 +10.0 91 +11 +11 1020.4 971.3 0.2
20 10.09 Ю 1 19 км слаб. дождь 10/10 1380 м
[]
+11.3 +9.7 90 +12 +12 1021.2 972.0 0.6
21 10.09 ЮЗ 1
{2}
19 км слаб. дождь 10/10 1000 м
[]
+11.2 +10.1 93 +12 +12 1021.6 972.4 1 0
22 10.09 штиль 0 20 км 10/6 1440 м
[]
+11.3 +10.4 94 +11 +11 1021.8 972.6 0.0
23 10.09 З 1 19 км 10/10 1500 м
[]
+11.5 +10.6 94 +12 +12 1022.1 972.9
00 11.09 В 1
{2}
20 км 10/10 1000 м
[]
+11.5 +10.6 94 +12 +12 1022.4 973.2 0.0 0
01 11.09 штиль 0 20 км слаб. дождь 10/10 1500 м
[]
+11.4 +10.5 94 +11 +11 1022.5 973.3 0.0
02 11.09 штиль 0 20 км 10/10 1500 м
[]
+11.6 +10.7 94 +11 +11 1022.0 972.9 0.0
03 11.09 ЮВ 2
{4}
20 км 10/10 1500 м
[]
+12.1 +10.0 87 +11 +11 1022.4 973.3 0.0 0
04 11.09 ЮЗ 1 20 км 10/10 1500 м
[]
+11.8 +10.5 92 +12 +12 1022.8 973.7
05 11.09 штиль 0 20 км 10/10 1500 м
[]
+11.7 +10.8 94 +11 +11 1023.7 974.5
06 11.09 ЮЗ 2
{2}
20 км 10/10 1500 м
[]
+11.8 +11.0 95 +11 +11 1024.3 975.1 +11.1 +12.3 1 0
07 11.09 В 1 20 км 10/10 1500 м
[]
+13.2 +10.4 83 +14 +14 1024.6 975.6
08 11.09 СВ 1 20 км 10/10 1500 м
[]
+13.4 +11.6 89 +14 +14 1026.3 977.3
09 11.09 З 2
{3}
20 км 10/10 1500 м
[]
+14.5 +12.2 86 +14 +14 1026.6 977.7 0
10 11.09 ЮВ 2 20 км 10/10 1500 м
[]
+15.6 +10.4 71 +16 +16 1026.8 978.1
11 11.09 З 1 20 км 10/10 1500 м
[]
+16.8 +12.5 76 +18 +18 1027.0 978.5
12 11.09 Ю 2
{5}
20 км 9/9 1500 м
[]
+20.1 +11.8 59 +22 +24 комфорт 1026.1 978.2 0
13 11.09 В 1 20 км 10/10 1500 м
[]
+20.8 +12.0 57 +24 +24 комфорт 1026.1 978.3
14 11.09 З 2 20 км 10/10 1500 м
[]
+21.3 +9.5 47 +23 +23 комфорт 1026.1 978.3
15 11.09 СЗ 3
{5}
20 км 10/10 1500 м
[]
+21.3 +9.2 46 +23 +23 комфорт 1026.3 978.5 0
16 11.09 З 1 20 км н/о +22.3 +8.0 40 +23 +23 комфорт 1025.9 978.3
17 11.09 СЗ 1 20 км н/о +21.3 +9.2 46 +23 +23 комфорт 1025.9 978.1
18 11.09 З 1
{3}
20 км н/о +16.6 +11.1 70 +17 +17 1027.5 978.9 +11.8 +22.4 0
19 11.09 Ю 2 20 км н/о +14.5 +10.3 76 +14 +14 1028.8 979.8
20 11.09 Ю 1 20 км н/о +13.5 +10.1 80 +14 +14 1029.8 980.6
21 11.09 Ю 4
{5}
20 км н/о +13.9 +10.3 79 +13 +13 1030.4 981.2 0
22 11.09 З 1 20 км н/о +10.6 +9.4 92 +11 +11 1031.2 981.4
23 11.09 ЮЗ 1 20 км н/о +10.7 +9.6 93 +11 +11 1031.3 981.5
00 12.09 ЮЗ 1
{2}
20 км н/о +9.7 +8.6 93 +10 +10 1031.8 981.8 0
01 12.09 З 1 19 км н/о +8.9 +8.0 94 +9 +9 1031.7 981.6
02 12.09 штиль 0 19 км н/о +9.1 +8.5 96 +8 +8 1031.7 981.6
03 12.09 ЮВ 2
{3}
20 км н/о +10.0 +9.5 97 +9 +9 1031.1 981.2 0
04 12.09 З 1 14 км н/о +8.6 +8.0 96 +9 +9 1031.4 981.3
05 12.09 СЗ 1 7000 м н/о +7.9 +7.1 95 +8 +8 1031.7 981.4
06 12.09 ЮЗ 1
{2}
20 км н/о +8.6 +8.2 97 +9 +9 1032.1 981.9 +7.6 +16.4 0.2 0
07 12.09 штиль 0 20 км н/о +11.2 +10.4 95 +10 +10 1032.1 982.4
08 12.09 штиль 0 20 км н/о +14.8 +11.2 79 +15 +15 1032.1 983.0
09 12.09 СВ 1
{2}
20 км н/о +19.2 +11.7 62 +22 +22 комфорт 1031.8 983.5 0
10 12.09 СВ 1 19 км н/о +21.0 +12.2 57 +25 +25 комфорт 1031.5 983.5
11 12.09 С 1 20 км н/о +22.8 +8.5 40 +24 +24 комфорт 1030.8 983.0
12 12.09 З 2
{3}
20 км н/о +23.6 +8.8 39 +24 +24 комфорт 1030.2 982.6 0
13 12.09 СЗ 1 20 км н/о +24.1 +10.4 42 +25 +25 комфорт 1029.4 981.9
14 12.09 С 1 19 км н/о +25.3 +10.7 40 +26 +26 жарко 1028.9 981.6
15 12.09 С 2
{5}
20 км н/о +25.2 +11.4 42 +27 +27 жарко 1028.7 981.4 0
16 12.09 СВ 1 20 км н/о +24.7 +10.2 40 +26 +26 жарко 1028.7 981.3
17 12.09 С 1 20 км н/о +24.1 +8.9 38 +25 +25 комфорт 1028.9 981.4
18 12.09 З 2
{3}
20 км н/о +17.4 +11.9 70 +18 +18 1030.0 981.5 +8.4 +25.7 0
19 12.09 Ю 1 20 км н/о +15.7 +10.9 73 +17 +17 1030.7 981.8
20 12.09 Ю 1 20 км н/о +13.7 +11.0 84 +15 +15 1031.3 982.1
21 12.09 штиль 0
{2}
20 км н/о +13.3 +11.7 90 +13 +13 1031.3 982.0 0
22 12.09 ЮВ 1 20 км н/о +13.7 +11.9 89 +14 +14 1031.4 982.2
23 12.09 ЮЗ 1 20 км н/о +12.2 +10.9 92 +13 +13 1031.2 981.7
00 13.09 З 1
{7}
20 км н/о +12.5 +11.2 92 +12 +12 1031.0 981.6 0
01 13.09 ЮЗ 1 20 км н/о +11.3 +10.5 95 +12 +12 1031.0 981.4
02 13.09 З 1 19 км н/о +10.4 +9.5 94 +11 +11 1030.7 980.9
03 13.09 З 1
{2}
20 км н/о +9.8 +9.0 95 +10 +10 1030.9 981.0 0
04 13.09 З 1 17 км н/о +9.9 +9.3 96 +10 +10 1031.0 981.1
05 13.09 ЮЗ 1 16 км н/о +10.0 +9.5 97 +10 +10 1031.2 981.3
06 13.09 З 1
{2}
14 км н/о +9.1 +8.3 95 +8 +8 1030.9 980.9 +8.9 +17.3 0
07 13.09 З 1 20 км н/о +12.9 +12.3 96 +14 +14 1030.2 980.9
08 13.09 СВ 1 20 км н/о +18.1 +13.8 76 +20 +20 1029.7 981.3
09 13.09 В 2
{4}
20 км н/о +21.2 +12.9 59 +23 +23 комфорт 1029.0 981.1 0
10 13.09 ЮВ 1 20 км н/о +23.6 +10.6 44 +25 +25 комфорт 1028.3 980.8
11 13.09 В 1 20 км н/о +24.9 +11.1 42 +26 +26 жарко 1027.3 980.1
12 13.09 В 2
{4}
20 км н/о +25.2 +11.0 41 +26 +26 жарко 1027.0 979.8 0
13 13.09 В 1 20 км н/о +25.4 +12.3 44 +27 +27 жарко 1026.4 979.3
14 13.09 З 1 20 км н/о +25.1 +13.6 49 +27 +27 жарко 1026.2 979.1
15 13.09 З 2
{3}
20 км 8/0
[]
+24.4 +14.2 53 +27 +31 жарко 1025.8 978.6 0
16 13.09 штиль 0 20 км 8/8
[]
+23.3 +14.6 58 +27 +28 душно 1025.9 978.5
17 13.09 В 1 20 км 9/9
[]
+22.7 +15.8 65 +27 +27 душно 1025.7 978.3
18 13.09 штиль 0
{2}
20 км 9/0
[]
+20.6 +16.8 79 +24 +24 комфорт 1025.9 978.2 +9.1 +25.6 0
19 13.09 штиль 0 20 км н/о +17.2 +14.7 85 +17 +17 1027.2 978.8
20 13.09 Ю 1 20 км н/о +16.0 +14.0 88 +17 +17 1027.7 979.1
21 13.09 штиль 0
{1}
20 км н/о +14.8 +13.5 92 +14 +14 1028.0 979.2 0
22 13.09 В 1 20 км н/о +14.9 +13.8 93 +16 +16 1028.1 979.3
23 13.09 штиль 0 19 км н/о +13.8 +12.5 92 +13 +13 1028.2 979.2
00 14.09 З 1
{2}
20 км н/о +13.7 +13.1 96 +15 +15 1027.7 978.7 0
01 14.09 СЗ 1 14 км слаб. дождь 10/1 1350 м
[]
+14.5 +13.9 96 +16 +16 1027.4 978.5 0.2
02 14.09 Ю 1 18 км 10/10
[]
+14.4 +13.6 95 +15 +15 1027.1 978.2 0.2
03 14.09 З 1
{3}
19 км 10/0
[]
+14.1 +13.5 96 +14 +14 1026.7 977.8 0.4 0
04 14.09 ЮВ 1 20 км 10/10
[]
+15.7 +13.9 89 +16 +16 1026.5 977.9
05 14.09 В 1 19 км н/о +14.1 +13.3 95 +15 +15 1026.6 977.7
06 14.09 Ю 1
{3}
3000 м дымка 8/0
[]
+13.6 +13.0 96 +14 +14 1027.2 978.2 +13.0 +20.6 0.4 0
07 14.09 штиль 0 20 км н/о +14.6 +14.0 96 +14 +14 1027.0 978.2
08 14.09 З 1 20 км 8/8
[]
+17.5 +14.9 85 +19 +20 1026.7 978.4
09 14.09 ЮВ 2
{3}
20 км н/о +21.8 +14.7 64 +25 +25 комфорт 1026.0 978.4 0
10 14.09 СВ 1 20 км н/о +24.2 +14.0 53 +27 +27 жарко 1025.4 978.2
11 14.09 З 1 19 км н/о +25.6 +15.6 54 +29 +29 душно 1024.8 977.9
12 14.09 С 1
{4}
20 км н/о +26.2 +14.6 49 +29 +29 жарко 1024.1 977.3 0
13 14.09 С 1 20 км н/о +27.7 +16.0 49 +31 +31 душно 1023.4 976.8
14 14.09 В 1 20 км н/о +27.1 +15.8 50 +30 +30 душно 1023.1 976.5
15 14.09 С 2
{4}
20 км н/о +27.5 +15.5 48 +30 +30 жарко 1022.4 975.9 0
16 14.09 З 1 18 км н/о +26.1 +16.1 54 +29 +29 жарко 1022.7 975.9
17 14.09 Ю 1 20 км н/о +22.6 +17.1 71 +27 +27 душно 1023.2 975.9
18 14.09 ЮЗ 1
{3}
18 км слаб. дождь 10/10 1500 м
[]
+21.5 +17.9 80 +26 +26 душно 1023.5 976.0 +13.5 +27.7 0.2 0
19 14.09 З 1 20 км 8/8
[]
+19.8 +17.8 88 +24 +24 комфорт 1024.0 976.2 0.0
20 14.09 штиль 0 20 км 9/9
[]
+18.3 +17.0 92 +19 +19 1024.1 976.1
21 14.09 Ю 2
{2}
20 км н/о +17.2 +16.4 95 +18 +18 1024.1 975.9 0.0 0
22 14.09 З 1 19 км н/о +16.5 +15.5 94 +18 +18 1023.9 975.6
23 14.09 СЗ 1 6000 м н/о +16.3 +15.3 94 +18 +18 1023.7 975.3
00 15.09 З 1
{6}
9000 м н/о +15.8 +14.8 94 +17 +17 1023.8 975.3 0
01 15.09 С 1 20 км н/о +15.7 +14.9 95 +17 +17 1023.4 974.9
02 15.09 С 1 19 км н/о +14.8 +13.7 93 +16 +16 1023.6 975.0
03 15.09 штиль 0
{3}
20 км н/о +14.5 +13.5 94 +14 +14 1023.6 974.9 0
04 15.09 ЮВ 1 14 км н/о +13.9 +13.3 96 +15 +15 1023.3 974.5
05 15.09 штиль 0 16 км 10/10
[]
+14.2 +13.6 96 +14 +14 1023.2 974.5 0.2
06 15.09 штиль 0
{2}
20 км 9/0
[]
+14.5 +14.0 97 +14 +14 1022.8 974.2 +13.4 +21.7 0.2 0
07 15.09 ЮВ 1 20 км 10/10
[]
+17.5 +14.8 84 +19 +19 1022.6 974.5
08 15.09 В 1 20 км н/о +20.0 +15.4 75 +23 +23 комфорт 1022.4 974.7
09 15.09 В 1
{4}
20 км н/о +23.5 +16.0 63 +27 +27 душно 1021.8 974.7 0
10 15.09 СЗ 1 20 км н/о +25.3 +16.7 59 +29 +29 душно 1021.6 974.8
11 15.09 СЗ 1 20 км 9/9
[]
+25.4 +16.5 58 +29 +30 душно 1021.6 974.8
12 15.09 СЗ 2
{5}
20 км н/о +26.8 +17.3 56 +31 +31 душно 1021.1 974.5 0
13 15.09 З 1 19 км н/о +28.0 +16.6 50 +32 +32 душно 1020.1 973.8
14 15.09 З 1 20 км н/о +27.4 +16.7 52 +31 +31 душно 1019.5 973.1
15 15.09 СВ 2
{4}
20 км н/о +27.8 +16.4 50 +31 +31 душно 1018.6 972.3 0
17 15.09 ЮВ 1 3700 м дымка 10/10
[]
+24.8 +17.5 64 +29 +29 душно 1019.1 972.3
18 15.09 Ю 1
{2}
17 км 8/0
[]
+21.5 +18.1 81 +26 +26 душно 1019.8 972.5 +14.5 +28.5 0
19 15.09 З 1 20 км 10/10
[]
+19.8 +17.8 88 +24 +24 комфорт 1021.1 973.5
20 15.09 В 1 20 км н/о +19.1 +17.4 90 +22 +22 комфорт 1021.7 973.9
21 15.09 ЮВ 2
{4}
20 км н/о +18.9 +17.2 90 +21 +21 комфорт 1021.3 973.5 0
22 15.09 ЮЗ 1 20 км н/о +17.9 +17.1 95 +20 +20 1021.4 973.4
23 15.09 З 1 15 км н/о +16.3 +15.3 94 +18 +18 1021.5 973.2

 

Местоположение метеостанции Сен-Жирон (Франция): широта 43.00 долгота 1.10 высота над уровнем моря 412 м.

В архиве по умолчанию представлена погода в Сен-Жироне за последнюю неделю. Архивные данные за месяц целиком и за предыдущие месяцы, начиная с января 2011 года, Вы можете получить, выбрав интересующий диапазон дат из раскрывающегося списка и нажав кнопку "Ввод!".


*Определитесь, кто Вы:
робот инопланетянин человек

Внимание! Время в таблицах - всемирное. Для получения местного времени необходимо прибавить поправку, которая равна 1 ч.

Смотрите также архив погоды в соседних городах и на ближайших метеорологических станциях:

Погода в Артьесе (Испания) (38 км)
Погода в Мюре-Лерм (Франция) (52 км)
Погода в Тулуза аэропорту (Франция) (63 км)
Погода в Тулузе (Франция) (73 км)
Погода в Сео-де-Уржеле (Испания) (78 км)
Погода в Бьельсе (Испания) (83 км)
Погода в Оше (Франция) (86 км)
Погода в Таларе (Испания) (90 км)
Погода в Тарбе (Франция) (92 км)
Погода в Ла-Молине (Испания) (101 км)

Пояснения к столбцам:

Ветер - указаны скорость ветра в м/с - средняя за 10 мин, порывы в срок и между сроками (в фигурных скобках) и направление, откуда дует ветер: С - северный, СВ - северо-восточный, В - восточный, ЮВ - юго-восточный, Ю - южный, ЮЗ - юго-западный, З - западный, СЗ - северо-западный.
Видимость - горизонтальная дальность видимости в метрах или километрах. При видимости от 1 до 10 км при отсутствии осадков обычно наблюдается дымка, при ухудшении видимости до 1 км и менее - туман. В сухую погоду видимость может ухудшаться дымом, пылью или мглою.
Явления - указаны атмосферные явления, наблюдавшиеся в срок или в последний час перед сроком; фигурными скобками обозначены явления, наблюдавшиеся между сроками (за 1-3 часа до срока); квадратными скобками обозначены град или гололедные отложения с указанием их диаметра в мм.
Облачность - указаны через наклонную черту общая и нижняя облачность в баллах и высота нижней границы облаков в метрах; квадратными скобками обозначены формы облаков: Ci - перистые, Cs - перисто-слоистые, Cc - перисто-кучевые, Ac - высококучевые, As - высокослоистые, Sc - слоисто-кучевые, Ns - слоисто-дождевые, Cu - кучевые, Cb - кучево-дождевые. Подробнее классификацию облаков см. в Атласе облаков (PDF).
T - Температура воздуха - температура, измеренная на высоте 2 м над землей.
Td - Температура точки росы - температура, при понижении до которой содержащийся в воздухе водяной пар достигнет насыщения.
f - Относительная влажность воздуха - влажноcть воздуха, измеренная на высоте 2 м над землей.
Te - Эффективная температура - температура, которую ощущает одетый по сезону человек в тени. Характеристика душности погоды. При расчете учитывается влияние влажности воздуха и скорости ветра на теплоощущения человека.
Tes - Эффективная температура на солнце - температура, которую ощущает человек, с поправкой на солнечный нагрев. Характеристика знойности погоды. Зависит от высоты солнца над горизонтом, облачности и скорости ветра. Ночью, в пасмурную погоду, а также при ветре 12 м/с и более поправка равна нулю.
P - Атмосферное давление - приведенное к уровню моря атмосферное давление.
Po - Атмосферное давление - измеренное на уровне метеостанции атмосферное давление.
Tmin - Минимальная температура - минимум температуры воздуха на высоте 2 м над землей.
Tmax - Максимальная температура - максимум температуры воздуха на высоте 2 м над землей.
R - Количество осадков - Количество выпавших осадков за период времени, мм. При наведении курсора мыши на число - период времени, за который выпало указанное количество осадков.
R24 - Количество осадков - Количество выпавших осадков за 24 часа, мм.
S - Снежный покров - Высота снежного покрова, см. При наведении курсора мыши на число - состояние снежного покрова и степень покрытия местности в баллах.